Terminal Aerodrome Forecast
Issued by NWS Charleston, WV

Current Version | Previous Version | Graphics & Text | Print | Product List | Glossary On
Versions: 1 2 3 4 5 6 7 8 9 10 11 12 13 14 15 16 17 18 19 20 21 22 23
529
FTUS41 KRLX 181138
TAFHTS
TAF
KHTS 181138Z 1812/1912 28008G15KT 6SM -DZ BR OVC025
     FM181400 28006KT P6SM OVC015
     FM181800 27006KT P6SM BKN020
     FM182200 27004KT P6SM SCT020
     FM190600 VRB03KT P6SM SCT150=

USA.gov is the U.S. government's official web portal to all federal, state and local government web resources and services.